TITAN 3C TRANSTAGE R/B, 9855

Orbit data source: Space-Track

TITAN 3C TRANSTAGE R/B, 9855 is space debris in GEO originally from a launch on Sun, 06 Feb 1977 UTC launched from the Air Force Eastern Test Range (AFETR). Debris objects in space refer to the collection of defunct objects orbiting the Earth. Examples of debris include non-operational satellites, rocket bodies, and fragments generated from explosions, collisions, or faulty payload assembly.

Loading next visibility...
TITAN 3C TRANSTAGE R/B details
Identifier
9855, 1977-007C
Orbit
GEO
Last TLE update1 day ago
Origin
Flag of USSAMSO (US)
ManufacturerMartin Marietta
MissionSpacecraft
Bus & MotorTRANSTAGE, Unknown motor
Mass~1,950 kg wet, ~1,950 kg dry
Launch date (UTC)
1977-02-06 (48 years ago)
Launch vehicleUnknown
Launch site
Air Force Eastern Test Range (AFETR)
Object type
Payload
Rocket body
Debris
Shape & HBRCyl + 2 Nozzle, 4.6 m
Radar Cross Section14.974 m²

Expand to show TLE details & history

TLE from 1 day ago
0 TITAN 3C TRANSTAGE R/B
1  9855U 77007C   24347.75481820 -.00000219  00000-0  00000+0 0  9995
2  9855   4.8195 276.7471 0016311  27.9391 332.3665  1.00224904 19823
Epoch: 2024-12-12T18:06Z
Definitive object data (Epoch: 2024-12-12T18:06:56.292Z)
Latitude
Longitude-76.72611°
Altitude35,738.233 km
Speed3.079 km/s
True Right ascension18h 27m 45s
True Declination0° 00' 00"
Sunlit
Object was in daylight at TLE epoch
Visualization TLE readout
Latitude4.05457°
Longitude-19.84086°
Altitude35,739.05 km
Speed3.079 km/s
Apparent Right ascension22h 29m 23s
Apparent Declination-1° 39' 43"
Sunlit
Object is in daylight
Visualization observer readout
Local Sidereal Time20:22:09
Azimuth137.117° SSE
Elevation39.265°
Doppler factor1
Orbital elements
Apogee altitude35,869.6 km
Perigee altitude35,732.003 km
Semi-major axis42,178.939 km
Eccentricity0.0016311
Inclination4.8195°
RAAN276.7471°
Arg. of periapsis27.9391°
True anomaly332.27965°
Mean anomaly332.3665°
Eccentric anomaly332.32309°
Mean motion0.25055 °/min
BSTARUnknown
Orbital period1436.82 mins
Loading historical data...
9855 neighbors
Authenticating...
Loading maneuver chart data...
Loading historical data...
Loading historical data...
Loading historical data...
Loading historical data...
Loading historical data...
Loading historical data...
Loading historical data...
Other satellites on launch #7 in the year 1977 (1977-02-06 UTC)

TITAN 3C TRANSTAGE R/B Visibility forecast

Observer location: undefined°, undefined

Span
Click to sort rows by Start time (UTC) header in descending order
Start Az.
Max El. time (UTC)
Max El. Az.
Max El.
End time (UTC)
End Az.
1440 mins2024-12-13 21:50:21.153Z137.131° SSE2024-12-13 23:59:21.153Z136.35° SSE32.682°2024-12-14 21:50:21.153Z137.306° SSE
|